Location: Fauquembergues
(50.6005°N, 2.0987°E)
Time: 20:49:12
(UTC+00:00)

GRACE-FO 2 - Pass Details

Date: 14 July 2020
Orbit: 480 x 507 km, 89.0° (Epoch: 14 August)

Event Time Altitude Azimuth Distance (km) Brightness Sun altitude
Rises 01:10:37 0° 359° (N) 2,576 9.7 -16.0°
Reaches altitude 10° 01:12:43 10° 359° (N) 1,685 8.5 -15.9°
Maximum altitude 01:16:23 85° 270° (W) 494 4.5 -15.7°
Enters shadow 01:17:56 32° 185° (S) 843 5.2 -15.6°
